EUTELSAT 16C (26243 NORAD) Tracking and Keplerian Element Data

This shows tracking and keplerian element data for the satellite.

Feedback or suggestion? Click here.




ElementValue
Catalog26243
NameEUTELSAT 16C
Epoch Orbit6516
Epoch Day35.81184084
Epoch Year2018
RAAN65.2763
Inclination4.6883
Eccentricity0.0006739
Argument of Perigee69.9112
Mean Anonmoly294.3413
Mean Motion0.99275301
Decay Rate-1.63E-06
L11 26243U 00019A 18035.81184084 -.00000163 00000-0 00000+0 0 9998
L22 26243 4.6883 65.2763 0006739 69.9112 294.3413 0.99275301 65160



Live tracking and technical data element details for EUTELSAT 16C (NORAD 26243). EUTELSAT 16C can be tracked NOW for your location showing map with azimuth and elevation plus other details from your city location.







IsCatalogInMostPopularTable: catalog: 26243, numindb: 390
Update: records affected: 1



GetName: 26243 EUTELSAT 16C

Hit Count: updated at: Fri, 16 May 2025 11:28:50 GMT